| time (UTC) | temp F | wind direction | speed MPH | gust MPH | rain 1hr in | rain 24hr in | rain mn in | humidity % | barometer mb |
| 20260505210028 | 65 | 271 | 4.0 | 16.0 | 0.00 | 0.30 | 0.30 | 48 | 1011.1 |
| 20260505204511 | 68 | 328 | 5.0 | 12.0 | 0.01 | 0.30 | 0.30 | 45 | 1010.8 |
| 20260505203015 | 67 | 15 | 2.0 | 12.0 | 0.01 | 0.30 | 0.30 | 49 | 1011.1 |
| 20260505201523 | 66 | 203 | 2.0 | 7.0 | 0.01 | 0.30 | 0.30 | 54 | 1011.3 |
| 20260505200025 | 64 | 77 | 3.0 | 11.0 | 0.01 | 0.30 | 0.30 | 58 | 1011.6 |
| 20260505194526 | 67 | 306 | 5.0 | 19.0 | 0.00 | 0.29 | 0.29 | 49 | 1011.2 |
| 20260505193014 | 68 | 248 | 2.0 | 9.0 | 0.00 | 0.29 | 0.29 | 48 | 1011.1 |
| 20260505191520 | 66 | 345 | 2.0 | 10.0 | 0.00 | 0.29 | 0.29 | 52 | 1011.0 |
| 20260505190023 | 66 | 359 | 3.0 | 10.0 | 0.00 | 0.29 | 0.29 | 48 | 1011.4 |
| 20260505184514 | 68 | 255 | 3.0 | 8.0 | 0.00 | 0.29 | 0.29 | 49 | 1011.3 |
| 20260505183013 | 69 | 254 | 4.0 | 9.0 | 0.00 | 0.29 | 0.29 | 49 | 1011.3 |
| 20260505181516 | 68 | 34 | 2.0 | 6.0 | 0.00 | 0.29 | 0.29 | 50 | 1011.4 |
| 20260505180019 | 66 | 320 | 2.0 | 5.0 | 0.00 | 0.29 | 0.29 | 59 | 1011.9 |
| 20260505174524 | 65 | 303 | 2.0 | 9.0 | 0.01 | 0.29 | 0.29 | 65 | 1012.1 |
| 20260505173007 | 65 | 314 | 2.0 | 7.0 | 0.01 | 0.29 | 0.29 | 63 | 1012.0 |
| 20260505171513 | 63 | 345 | 2.0 | 5.0 | 0.01 | 0.29 | 0.29 | 77 | 1012.3 |
| 20260505170023 | 61 | 201 | 1.0 | 4.0 | 0.01 | 0.29 | 0.29 | 78 | 1012.6 |
| 20260505164520 | 61 | 305 | 1.0 | 3.0 | 0.00 | 0.28 | 0.28 | 77 | 1012.4 |
| 20260505163028 | 59 | 211 | 0.0 | 5.0 | 0.00 | 0.28 | 0.28 | 82 | 1012.4 |
| 20260505161508 | 59 | 281 | 2.0 | 5.0 | 0.00 | 0.28 | 0.28 | 83 | 1012.3 |
| 20260505153024 | 56 | 354 | 1.0 | 2.0 | 0.01 | 0.28 | 0.28 | 86 | 1012.3 |
| 20260505151533 | 56 | 23 | 0.0 | 2.0 | 0.01 | 0.28 | 0.28 | 84 | 1012.3 |
| 20260505124513 | 54 | 50 | 0.0 | 0.0 | 0.00 | 0.27 | 0.27 | 90 | 1011.8 |
| 20260505123017 | 54 | 50 | 0.0 | 0.0 | 0.00 | 0.27 | 0.27 | 89 | 1011.7 |
| 20260505121518 | 54 | 20 | 0.0 | 2.0 | 0.01 | 0.27 | 0.27 | 88 | 1011.7 |
| 20260505120028 | 54 | 100 | 0.0 | 1.0 | 0.01 | 0.27 | 0.27 | 89 | 1011.8 |
| 20260505114508 | 54 | 142 | 0.0 | 1.0 | 0.02 | 0.27 | 0.27 | 89 | 1012.2 |
| 20260505113010 | 54 | 139 | 0.0 | 1.0 | 0.03 | 0.27 | 0.27 | 89 | 1012.0 |
| 20260505111535 | 54 | 261 | 0.0 | 1.0 | 0.03 | 0.26 | 0.26 | 87 | 1012.3 |
| 20260505101522 | 55 | 23 | 0.0 | 1.0 | 0.15 | 0.23 | 0.23 | 89 | 1012.5 |
| 20260505100020 | 55 | 22 | 0.0 | 2.0 | 0.16 | 0.20 | 0.20 | 88 | 1012.6 |
| 20260505094526 | 55 | 79 | 0.0 | 1.0 | 0.15 | 0.16 | 0.16 | 87 | 1012.5 |
| 20260505093027 | 55 | 136 | 0.0 | 1.0 | 0.10 | 0.11 | 0.11 | 87 | 1012.4 |
| 20260505091511 | 56 | 142 | 0.0 | 1.0 | 0.08 | 0.08 | 0.08 | 83 | 1012.6 |
| 20260505090020 | 57 | 352 | 0.0 | 3.0 | 0.04 | 0.04 | 0.04 | 76 | 1012.9 |
| 20260505084527 | 59 | 271 | 1.0 | 10.0 | 0.01 | 0.01 | 0.01 | 65 | 1012.9 |
| 20260505083023 | 59 | 8 | 3.0 | 9.0 | 0.01 | 0.01 | 0.01 | 64 | 1012.9 |
| 20260505081526 | 60 | 309 | 3.0 | 7.0 | 0.00 | 0.00 | 0.00 | 59 | 1013.1 |
| 20260505080031 | 62 | 335 | 1.0 | 5.0 | 0.00 | 0.00 | 0.00 | 51 | 1013.3 |
| 20260505074514 | 63 | 345 | 2.0 | 8.0 | 0.00 | 0.00 | 0.00 | 43 | 1013.2 |
| 20260505073017 | 63 | 6 | 2.0 | 10.0 | 0.00 | 0.00 | 0.00 | 42 | 1013.4 |
| 20260505071523 | 63 | 269 | 2.0 | 7.0 | 0.00 | 0.00 | 0.00 | 42 | 1013.1 |
| 20260505070017 | 63 | 274 | 2.0 | 6.0 | 0.00 | 0.00 | 0.00 | 43 | 1012.9 |
| 20260505064514 | 64 | 240 | 2.0 | 5.0 | 0.00 | 0.00 | 0.00 | 42 | 1013.0 |
| 20260505063018 | 64 | 177 | 1.0 | 9.0 | 0.00 | 0.00 | 0.00 | 41 | 1012.9 |
| 20260505061524 | 64 | 338 | 0.0 | 4.0 | 0.00 | 0.00 | 0.00 | 41 | 1013.3 |
| 20260505060023 | 65 | 201 | 1.0 | 6.0 | 0.00 | 0.00 | 0.00 | 40 | 1013.4 |
| 20260505054506 | 65 | 331 | 4.0 | 10.0 | 0.00 | 0.00 | 0.00 | 40 | 1013.5 |
| 20260505053019 | 65 | 9 | 3.0 | 9.0 | 0.00 | 0.00 | 0.00 | 40 | 1013.6 |
| 20260505051522 | 66 | 336 | 2.0 | 9.0 | 0.00 | 0.00 | 0.00 | 39 | 1013.6 |
| 20260505041516 | 67 | 10 | 1.0 | 6.0 | 0.00 | 0.00 | 0.00 | 36 | 1013.3 |
| 20260505040036 | 67 | 43 | 1.0 | 8.0 | 0.00 | 0.00 | 0.00 | 37 | 1013.0 |
| 20260505034534 | 68 | 190 | 2.0 | 12.0 | 0.00 | 0.00 | 0.00 | 37 | 1012.6 |
| 20260505033028 | 68 | 18 | 2.0 | 7.0 | 0.00 | 0.00 | 0.00 | 37 | 1012.4 |
| 20260505031512 | 69 | 194 | 3.0 | 11.0 | 0.00 | 0.00 | 0.00 | 35 | 1012.4 |
| 20260505030018 | 69 | 233 | 4.0 | 13.0 | 0.00 | 0.00 | 0.00 | 32 | 1012.2 |
| 20260505024522 | 70 | 350 | 6.0 | 13.0 | 0.00 | 0.00 | 0.00 | 29 | 1011.5 |
| 20260505023026 | 70 | 293 | 4.0 | 9.0 | 0.00 | 0.00 | 0.00 | 28 | 1011.5 |
| 20260505021526 | 70 | 271 | 2.0 | 10.0 | 0.00 | 0.00 | 0.00 | 29 | 1011.3 |
| 20260505020014 | 70 | 302 | 2.0 | 8.0 | 0.00 | 0.00 | 0.00 | 29 | 1011.4 |
| 20260505014518 | 71 | 219 | 2.0 | 10.0 | 0.00 | 0.00 | 0.00 | 29 | 1011.4 |
| 20260505013026 | 71 | 287 | 4.0 | 12.0 | 0.00 | 0.00 | 0.00 | 29 | 1011.6 |
| 20260505011528 | 72 | 204 | 4.0 | 12.0 | 0.00 | 0.00 | 0.00 | 27 | 1011.8 |
| 20260505010028 | 72 | 312 | 4.0 | 8.0 | 0.00 | 0.00 | 0.00 | 30 | 1011.8 |
| 20260505004518 | 73 | 299 | 3.0 | 12.0 | 0.00 | 0.00 | 0.00 | 29 | 1011.7 |
| 20260505003018 | 73 | 259 | 3.0 | 7.0 | 0.00 | 0.00 | 0.00 | 29 | 1011.6 |
| 20260505001524 | 74 | 272 | 2.0 | 6.0 | 0.00 | 0.00 | 0.00 | 29 | 1011.2 |
| 20260505000042 | 74 | 342 | 3.0 | 6.0 | 0.00 | 0.00 | 0.00 | 28 | 1011.2 |
| 20260504234528 | 74 | 277 | 2.0 | 9.0 | 0.00 | 0.00 | 0.00 | 26 | 1011.4 |
| 20260504233016 | 75 | 264 | 3.0 | 8.0 | 0.00 | 0.00 | 0.00 | 26 | 1011.5 |
| 20260504231519 | 75 | 208 | 2.0 | 11.0 | 0.00 | 0.00 | 0.00 | 28 | 1011.6 |
| 20260504230024 | 75 | 54 | 1.0 | 10.0 | 0.00 | 0.00 | 0.00 | 27 | 1011.8 |
| 20260504224525 | 75 | 287 | 5.0 | 11.0 | 0.00 | 0.00 | 0.00 | 27 | 1011.8 |
| 20260504223029 | 75 | 11 | 5.0 | 13.0 | 0.00 | 0.00 | 0.00 | 26 | 1011.5 |
| 20260504221525 | 76 | 218 | 3.0 | 13.0 | 0.00 | 0.00 | 0.00 | 26 | 1012.0 |
| 20260504220039 | 77 | 198 | 4.0 | 8.0 | 0.00 | 0.00 | 0.00 | 26 | 1011.7 |
| 20260504214526 | 77 | 299 | 4.0 | 13.0 | 0.00 | 0.00 | 0.00 | 24 | 1012.1 |
| 20260504213031 | 78 | 290 | 6.0 | 15.0 | 0.00 | 0.00 | 0.00 | 24 | 1011.8 |
| 20260504211537 | 79 | 254 | 3.0 | 11.0 | 0.00 | 0.00 | 0.00 | 24 | 1011.6 |